Regional Weather Roundup
Issued by NWS

Home | Current Version | Previous Version | Graphics & Text | Print | Product List | Glossary On
Versions: 1 2 3 4 5 6 7 8 9 10 11 12 13 14 15 16 17 18 19 20 21 22 23 24 25 26 27
000
ASUS45 KBOU 240707
RWRCO

WEATHER ROUNDUP FOR COLORADO
NATIONAL WEATHER SERVICE DENVER/BOULDER CO
100 AM MDT FRI MAR 24 2017

NOTE: "FAIR" INDICATES FEW OR NO CLOUDS BELOW 12000 FEET WITH NO
SIGNIFICANT WEATHER AND/OR OBSTRUCTIONS TO VISIBILITY.

COZ001>005-013-030-031-240800-
...NORTHWEST COLORADO...

CITY           SKY/WX    TMP DP  RH WIND       PRES   REMARKS
CRAIG          FAIR      39  31  72 N5G21     29.91R
HAYDEN         FAIR      36  30  80 W12       29.88R
MEEKER         MOCLDY    40  34  79 NW7       29.91R
MOUNT WERNER   NOT AVBL
STEAMBOAT SPGS FAIR      38  33  83 SE3       29.86R
WALDEN         NOT AVBL
$$

COZ006>008-011-240800-
...WEST CENTRAL VALLEYS...

CITY           SKY/WX    TMP DP  RH WIND       PRES   REMARKS
GRAND JUNCTION CLOUDY    44  39  82 NW14      29.88R
MONTROSE       CLOUDY    42  36  79 NW22G29   29.85R
EAGLE          LGT RAIN  39  35  86 S7        29.86R
RIFLE          CLOUDY    46  35  65 W14       29.85R
DELTA          FAIR      48  35  60 W15G21    29.81R
NUCLA          CLOUDY    41  36  81 NW6       29.92R
$$

COZ017>023-064>068-240800-
...SOUTHWEST COLORADO...

CITY           SKY/WX    TMP DP  RH WIND       PRES   REMARKS
DURANGO        FAIR      35  33  92 W20       29.76S WCI  24
CORTEZ         CLOUDY    39  36  89 W12       29.88R
PAGOSA SPRINGS LGT SNOW  33  33 100 SW9       29.76R WCI  25
TELLURIDE      NOT AVBL
WOLF CREEK PAS CLOUDY    19  19 100 NW5       29.83R WCI  13
$$

COZ009-010-012-014-032>034-037-058>063-240800-
...CENTRAL COLORADO...

CITY           SKY/WX    TMP DP  RH WIND       PRES   REMARKS
ASPEN          LGT SNOW  32  32 100 N5        29.83R FOG     WCI  27
BUENA VISTA    MOCLDY    38  29  67 NW17G30   29.73R
COPPER MTN     CLOUDY    28  23  80 MISG      29.87R
BERTHOUD PASS  CLOUDY    19  10  68 N6        29.88R WCI  11
COTTONWOOD PAS CLOUDY    36  27  69 CALM      29.78R
GUNNISON       MOCLDY    36  30  79 SW8       29.77R
KREMMLING      CLOUDY    41  34  75 S3        29.86R
LEADVILLE      LGT SNOW  28  25  88 N13G21    29.80R FOG     WCI  17
MONARCH PASS   CLOUDY    27  23  86 NE7G22    29.89S WCI  19
SALIDA         CLOUDY    42  32  67 N7G18     29.77R
SUNLIGHT       SNOW      27  25  93 NW5       29.94R VSB 1/4 WCI  21
WILKERSON PASS SNOW      28  27  93 NE13G30   29.80S VSB 1/2 WCI  18
$$

COZ069>075-240800-
...SAN LUIS VALLEY/SANGRE DE CRISTO MOUNTAINS...

CITY           SKY/WX    TMP DP  RH WIND       PRES   REMARKS
ALAMOSA        FLURRIES  36  32  85 NW15G21   29.61F
LA VETA PASS   NOT AVBL
SAGUACHE       CLOUDY    34  32  93 NW20G29   29.68R WCI  22
$$

COZ035-036-038>040-240800-
...NORTHERN COLORADO FRONT RANGE...

CITY           SKY/WX    TMP DP  RH WIND       PRES   REMARKS
DENVER INTL AP LGT SNOW  37  34  89 N29G36    29.80R FOG
DMNS CITY PARK   N/A     38  37  94 N21G31    29.80S
AURORA         FLURRIES  37  36  99 N22G39    29.80S
FRONT RANGE AP LGT RAIN  37  36  93 N25G31    29.78F
ERIE MUNI ARPT MOCLDY    41  38  87 NE12      29.79S
BOULDER MUN AP FAIR      41  41 100 N6        29.79S
CENTENNIAL     LGT RAIN  37  32  82 N22G28    29.80R
BROOMFIELD     CLOUDY    39  37  93 N12       29.80R
FORT COLLINS   FAIR      42  35  76 N26G32    29.79R
LONGMONT       MOCLDY    45  38  78 N15G22    29.81S
$$

COZ041-046-047-076>085-087-088-240800-
...PIKES PEAK/PALMER DIVIDE AND SOUTHERN FOOTHILLS...

CITY           SKY/WX    TMP DP  RH WIND       PRES   REMARKS
COLO. SPRINGS  MOCLDY    40  37  89 N30G38    29.65S
A. F. ACADEMY  MIX PCPN  36  34  93 N33G43    29.69F SQUALL
SCHRIEVER AFB  LGT RAIN  39  36  87 N31G45    29.61S
ELLICOTT         N/A    N/A N/A N/A NE45G63   29.55F
FALCON         CLOUDY    35  33  95 N26G43    29.67F WCI  22
FORT CARSON    MOCLDY    42  34  73 N38G51    29.61S
LIMON          RAIN      42  41  96 N33G41    29.68F FOG
MONUMENT HILL  CLOUDY    32  32 100 N24G32    29.77S WCI  19
TRINIDAD       LGT RAIN  50  37  61 N40G56    29.37F
$$

COZ042>045-048>051-090-091-240800-
...NORTHEAST COLORADO...

CITY           SKY/WX    TMP DP  RH WIND       PRES   REMARKS
GREELEY ARPT   CLOUDY    43  33  68 N28G35    29.82R
AKRON          LGT RAIN  43  40  89 NE30G44   29.75R
BURLINGTON     CLOUDY    56  46  69 N16       29.59S
WRAY           RAIN      48  45  87 NE28G39   29.71R
STERLING       CLOUDY    45  41  87 N25G37    29.78R
HOLYOKE        LGT RAIN  46  43  87 NE23G32   29.75R
FORT MORGAN    CLOUDY    43  37  79 N22G32    29.79R
$$

COZ086-089-092>099-240800-
...SOUTHEAST COLORADO...

CITY           SKY/WX    TMP DP  RH WIND       PRES   REMARKS
PUEBLO         CLOUDY    51  38  60 N53G70    29.45F
LA JUNTA       MOCLDY    60  46  59 NE37G47   29.37R
LAMAR          FAIR      55  29  36 S22G38    29.40R
SPRINGFIELD      N/A     45  29  53 S29G41    29.43F
$$




USA.gov is the U.S. government's official web portal to all federal, state and local government web resources and services.